{"data":{"norad_id":56412,"intl_designator":"2023-061AQ","name":"STARLINK-6278","alt_names":[],"object_type":"PAYLOAD","status":"ACTIVE","operator":null,"country":"US","launch_date":"2023-05-04","launch_site_code":"AFETR","launch_vehicle":null,"mission":null,"orbit_class":"UNKNOWN","rcs_meters":null,"size_class":null,"mass_kg":null,"dimensions":null,"purposes":["comms"],"wikipedia_slug":null,"has_3d_model":false,"image_url":null,"decayed_at":null,"tle_current":{"epoch":"2026-09-20T10:52:37.205760Z","epoch_age_seconds":116280,"freshness":"FRESH","line1":"1 56412U 23061AQ  26263.45320840 -.00000026  00000+0  85694-5 0  9990","line2":"2 56412  43.0053 166.9024 0001504 268.5758  91.4922 15.27576243186660","mean_motion":15.27576243,"eccentricity":0.0001504,"inclination_deg":43.0053,"raan_deg":166.9024,"arg_perigee_deg":268.5758,"mean_anomaly_deg":91.4922,"bstar":8.5694e-6,"rev_number":18666,"period_min":94.266980558168,"perigee_km":482.02842179146,"apogee_km":484.0922699531,"semimajor_km":6861.1973458723,"source":"CELESTRAK","updated_at":"2026-09-21T09:00:33.437233Z"}}}